FW8662 Weather Reports


time (UTC)temp
C
wind
direction
speed
KPH
gust
KPH
rain 1hr
cm
rain 24hr
cm
rain mn
cm
humidity
%
barometer
mb
20260508004618 23 90 16.1 37.0 0.00 0.00 0.00 61 1003.0
20260508003536 23 113 11.3 32.2 0.00 0.00 0.00 62 1003.0
20260508002516 23 90 17.7 33.8 0.00 0.00 0.00 61 1002.8
20260508001518 23 90 11.3 32.2 0.00 0.00 0.00 61 1002.9
20260508000516 23 113 11.3 29.0 0.00 0.00 0.00 61 1003.0
20260507235539 23 90 9.7 25.7 0.00 0.00 0.00 61 1002.9
20260507234516 23 90 9.7 29.0 0.00 0.00 0.00 60 1002.8
20260507233516 24 113 14.5 33.8 0.00 0.00 0.00 60 1002.7
20260507232517 24 90 14.5 27.4 0.00 0.00 0.00 60 1002.7
20260507231516 24 113 14.5 35.4 0.00 0.00 0.00 60 1002.6
20260507230537 24 113 9.7 33.8 0.00 0.00 0.00 60 1002.6
20260507225516 24 90 9.7 27.4 0.00 0.00 0.00 60 1002.7
20260507224516 24 90 11.3 30.6 0.00 0.00 0.00 59 1002.8
20260507223516 24 90 14.5 30.6 0.00 0.00 0.00 59 1003.0
20260507222516 25 90 11.3 27.4 0.00 0.00 0.00 58 1002.9
20260507221518 25 113 11.3 32.2 0.00 0.00 0.00 58 1002.9
20260507220516 25 90 9.7 25.7 0.00 0.00 0.00 58 1003.1
20260507215516 25 90 8.0 24.1 0.00 0.00 0.00 58 1003.3
20260507214516 25 90 11.3 25.7 0.00 0.00 0.00 57 1003.2
20260507213516 25 90 14.5 32.2 0.00 0.00 0.00 57 1003.1
20260507212516 25 90 9.7 25.7 0.00 0.00 0.00 57 1003.4
20260507211536 25 113 12.9 33.8 0.00 0.00 0.00 57 1003.5
20260507210516 25 135 9.7 35.4 0.00 0.00 0.00 56 1003.5
20260507205536 25 113 12.9 37.0 0.00 0.00 0.00 57 1003.5
20260507204516 25 90 9.7 29.0 0.00 0.00 0.00 57 1003.5
20260507203536 25 113 9.7 24.1 0.00 0.00 0.00 57 1003.3
20260507202519 26 90 8.0 29.0 0.00 0.00 0.00 57 1003.2
20260507201537 26 90 6.4 22.5 0.00 0.00 0.00 57 1003.5
20260507200516 26 90 9.7 25.7 0.00 0.00 0.00 56 1003.6
20260507195516 26 113 11.3 35.4 0.00 0.00 0.00 56 1003.4
20260507194516 26 113 8.0 29.0 0.00 0.00 0.00 57 1003.3
20260507193517 26 113 9.7 35.4 0.00 0.00 0.00 57 1003.3
20260507192516 26 90 8.0 22.5 0.00 0.00 0.00 57 1003.5
20260507191516 26 113 11.3 29.0 0.00 0.00 0.00 56 1003.5
20260507190515 26 90 8.0 40.2 0.00 0.00 0.00 55 1003.5
20260507185538 26 113 11.3 30.6 0.00 0.00 0.00 55 1003.5
20260507184538 26 135 8.0 22.5 0.00 0.00 0.00 56 1003.6
20260507183536 26 90 12.9 32.2 0.00 0.00 0.00 56 1003.4
20260507182518 26 90 11.3 38.6 0.00 0.00 0.00 55 1003.6
20260507181538 26 113 12.9 38.6 0.00 0.00 0.00 56 1003.8
20260507180516 26 90 12.9 38.6 0.00 0.00 0.00 55 1003.9
20260507175516 26 113 8.0 30.6 0.00 0.00 0.00 55 1004.0
20260507174516 26 90 11.3 38.6 0.00 0.00 0.00 54 1004.2
20260507173537 27 90 12.9 37.0 0.00 0.00 0.00 52 1004.4
20260507172536 27 113 12.9 38.6 0.00 0.00 0.00 52 1004.5
20260507171516 27 90 14.5 35.4 0.00 0.00 0.00 52 1004.6
20260507170515 27 113 14.5 40.2 0.00 0.00 0.00 52 1004.6
20260507165516 27 113 17.7 43.5 0.00 0.00 0.00 51 1004.4
20260507164517 26 113 14.5 35.4 0.00 0.00 0.00 50 1004.6
20260507163519 27 158 6.4 17.7 0.00 0.00 0.00 49 1004.7
20260507162517 27 90 14.5 49.9 0.00 0.00 0.00 50 1005.1
20260507161517 27 90 17.7 51.5 0.00 0.00 0.00 50 1005.3
20260507160516 27 90 14.5 41.8 0.00 0.00 0.00 51 1005.3
20260507155515 26 90 16.1 51.5 0.00 0.00 0.00 53 1005.3
20260507154538 26 90 11.3 38.6 0.00 0.00 0.00 54 1005.7
20260507153557 26 90 11.3 38.6 0.00 0.00 0.00 56 1005.8
20260507152516 26 68 20.9 46.7 0.00 0.00 0.00 58 1006.0
20260507151517 25 68 11.3 38.6 0.00 0.00 0.00 62 1006.3
20260507150538 25 90 12.9 40.2 0.00 0.00 0.00 63 1006.5
20260507145516 25 68 8.0 25.7 0.00 0.00 0.00 65 1006.7
20260507144557 25 90 14.5 48.3 0.00 0.00 0.00 65 1007.0
20260507143516 24 90 14.5 43.5 0.00 0.00 0.00 67 1007.3
20260507142517 24 90 12.9 40.2 0.00 0.00 0.00 68 1007.7
20260507141515 23 90 9.7 30.6 0.00 0.00 0.00 71 1007.8
20260507140517 23 90 14.5 35.4 0.00 0.00 0.00 73 1007.9
20260507135537 22 90 14.5 35.4 0.00 0.00 0.00 75 1008.2
20260507134516 22 68 12.9 40.2 0.00 0.00 0.00 77 1008.2
20260507133516 21 90 14.5 37.0 0.00 0.00 0.00 79 1008.4
20260507132516 21 68 12.9 32.2 0.00 0.00 0.00 79 1008.7
20260507131517 21 68 17.7 32.2 0.00 0.00 0.00 80 1009.1
20260507130537 21 68 11.3 25.7 0.00 0.00 0.00 80 1009.1
20260507125516 21 90 16.1 35.4 0.00 0.00 0.00 81 1009.3
20260507124516 21 68 16.1 32.2 0.00 0.00 0.00 80 1009.4
20260507123536 21 68 12.9 32.2 0.00 0.00 0.00 80 1009.5
20260507122517 21 68 20.9 32.2 0.00 0.00 0.00 81 1009.6
20260507121516 21 90 12.9 27.4 0.00 0.00 0.00 81 1009.8
20260507120516 21 68 14.5 30.6 0.00 0.00 0.00 81 1009.8
20260507115515 21 90 11.3 27.4 0.00 0.00 0.00 81 1009.5
20260507114516 21 68 17.7 35.4 0.00 0.00 0.00 82 1009.5
20260507113516 21 68 12.9 32.2 0.00 0.00 0.00 82 1009.5
20260507112517 21 68 17.7 33.8 0.00 0.00 0.00 82 1009.2
20260507111536 20 68 14.5 38.6 0.00 0.00 0.00 83 1009.0
20260507110518 20 90 17.7 35.4 0.00 0.00 0.00 83 1008.9
20260507105537 20 68 16.1 35.4 0.00 0.00 0.00 84 1008.8
20260507104515 20 68 19.3 32.2 0.00 0.00 0.00 84 1008.7
20260507103516 20 90 14.5 30.6 0.00 0.00 0.00 84 1008.9
20260507102517 20 68 17.7 30.6 0.00 0.00 0.00 84 1009.3
20260507101516 20 68 19.3 33.8 0.00 0.00 0.00 84 1009.2
20260507100516 20 68 14.5 30.6 0.00 0.00 0.00 84 1009.1
20260507095536 20 68 14.5 24.1 0.00 0.00 0.00 85 1009.1
20260507094517 20 68 17.7 32.2 0.00 0.00 0.00 85 1009.2
20260507093537 20 68 12.9 32.2 0.00 0.00 0.00 85 1009.2
20260507092517 20 68 16.1 35.4 0.00 0.00 0.00 86 1009.2
20260507091516 20 90 14.5 27.4 0.00 0.00 0.00 86 1009.1
20260507090517 20 68 17.7 30.6 0.00 0.00 0.00 86 1009.2
20260507085515 20 68 19.3 32.2 0.00 0.00 0.00 86 1009.4
20260507084517 20 90 16.1 29.0 0.00 0.00 0.00 86 1009.4
20260507083517 20 68 16.1 30.6 0.00 0.00 0.00 86 1009.4
20260507082517 20 68 17.7 29.0 0.00 0.00 0.00 86 1009.5
20260507081515 20 68 19.3 29.0 0.00 0.00 0.00 86 1009.8
20260507080516 20 90 17.7 32.2 0.00 0.00 0.00 85 1009.7
20260507075537 20 68 20.9 33.8 0.00 0.00 0.00 86 1009.9
20260507074516 19 68 17.7 30.6 0.00 0.00 0.00 86 1009.9
20260507073517 20 68 19.3 35.4 0.00 0.00 0.00 86 1010.1
20260507072637 20 68 19.3 32.2 0.00 0.00 0.00 86 1010.3
20260507071516 19 68 16.1 29.0 0.00 0.00 0.00 86 1010.4
20260507070517 20 68 16.1 30.6 0.00 0.00 0.00 86 1010.5
20260507065517 20 68 19.3 38.6 0.00 0.00 0.00 85 1010.7
20260507064517 20 68 14.5 33.8 0.00 0.00 0.00 85 1010.9
20260507063537 20 90 17.7 29.0 0.00 0.00 0.00 85 1011.0
20260507062517 20 68 17.7 32.2 0.00 0.00 0.00 84 1011.1
20260507061516 20 90 16.1 30.6 0.00 0.00 0.00 84 1011.2
20260507060516 20 68 17.7 30.6 0.00 0.00 0.00 84 1011.5
20260507055515 20 68 14.5 32.2 0.00 0.00 0.00 84 1011.6
20260507054517 20 68 17.7 29.0 0.00 0.00 0.00 84 1011.7
20260507053516 20 68 16.1 29.0 0.00 0.00 0.00 84 1011.9
20260507052517 20 68 14.5 25.7 0.00 0.00 0.00 84 1012.0
20260507051516 20 68 14.5 29.0 0.00 0.00 0.00 85 1012.1
20260507050516 20 68 14.5 22.5 0.00 0.00 0.00 85 1012.2
20260507045515 20 68 16.1 27.4 0.00 0.00 0.00 84 1012.2
20260507044518 20 90 14.5 29.0 0.00 0.00 0.00 84 1012.4
20260507043517 20 68 11.3 22.5 0.00 0.00 0.00 85 1012.7
20260507042516 20 68 11.3 19.3 0.00 0.00 0.00 84 1012.9
20260507041517 20 68 11.3 20.9 0.00 0.00 0.00 84 1012.7
20260507040537 20 68 11.3 17.7 0.00 0.00 0.00 84 1012.7
20260507035539 20 68 11.3 17.7 0.00 0.00 0.00 84 1012.9
20260507034517 21 68 12.9 20.9 0.00 0.00 0.00 82 1012.6
20260507033516 21 68 9.7 19.3 0.00 0.00 0.00 82 1012.9
20260507032519 21 68 9.7 19.3 0.00 0.00 0.00 80 1013.1
20260507031539 21 68 8.0 16.1 0.00 0.00 0.00 80 1013.0
20260507030537 21 68 9.7 19.3 0.00 0.00 0.00 79 1013.1
20260507025516 21 68 8.0 14.5 0.00 0.00 0.00 78 1013.1
20260507024518 22 68 9.7 16.1 0.00 0.00 0.00 77 1013.3
20260507023516 22 68 9.7 12.9 0.00 0.00 0.00 77 1013.5
20260507022517 22 68 9.7 12.9 0.00 0.00 0.00 76 1013.5
20260507021518 22 68 9.7 14.5 0.00 0.00 0.00 76 1013.4
20260507020517 22 68 9.7 12.9 0.00 0.00 0.00 75 1013.5
20260507015516 22 68 9.7 14.5 0.00 0.00 0.00 75 1013.5
20260507014516 22 68 9.7 14.5 0.00 0.00 0.00 74 1013.7
20260507013518 23 68 11.3 14.5 0.00 0.00 0.00 74 1013.8
20260507012516 23 68 8.0 14.5 0.00 0.00 0.00 74 1013.9
20260507011517 23 68 9.7 12.9 0.00 0.00 0.00 74 1013.9
20260507010518 23 68 8.0 11.3 0.00 0.00 0.00 73 1013.8
20260507005516 23 68 9.7 16.1 0.00 0.00 0.00 72 1013.9